Погода в Кашкарове

Россия / Республика Башкортостан     52°20′29″N   57°45′59″E
темп.,
°C
ветер,
м/с
пор.,
м/с
влажн.,
%
обл.,
%
осадки,
мм/ч
давл.,
гПа
погр.,
м
19 июня, сб
сб1923:00+10ссв36701 0.0 1022107
02:00+9с337681 0.0 102344
05:00+8с22795 0.0 102424
08:00+14ссз354954 0.0 1024466
11:00+18с353731 0.0 10241708
14:00+21ссз353560 0.0 10222060
17:00+22сз563830 0.0 10212071
20:00+18зсз58595 0.0 1021943
20 июня, вс
вс2023:00+13зсз310836 0.0 1022225
02:00+14зсз5138330 0.0 1020394
05:00+13зсз513905 0.0 1020338
08:00+18зсз613740 0.0 1019561
11:00+24зсз712546 0.0 10171433
14:00+26сз8124772 0.0 10162142
17:00+25сз913515 0.0 10171752
20:00+22ссз711580 0.0 10181267
21 июня, пн
пн2123:00+17ссз411700 0.0 1020468
02:00+12ссз36560 0.0 1021112
05:00+9ссз23660 0.0 102242
08:00+16с49403 0.0 1022617
11:00+20с57292 0.0 10221359
14:00+23с58303 0.0 10222047
17:00+24с57315 0.0 10212168
20:00+21с35494 0.0 1022142
22 июня, вт
вт2223:00+14с22681 0.0 102324
02:00+12ссз11745 0.0 102310
05:00+12з11735 0.0 102310
08:00+19зсз35535 0.0 1023310
11:00+25зсз57505 0.0 10211341
14:00+27сз784283 0.0 10202462
17:00+26ссз585038 0.0 10201665
20:00+24ссз59615 0.0 1020997
23 июня, ср
ср2323:00+18зсз35895 0.0 102081
02:00+17сз3128921 0.0 1020277
05:00+16зсз369188 0.1 1020105
08:00+22ссз356829 0.1 1019366
11:00+23в226690 2.3 1020952
14:00+26ссв355242 1.6 10191570
17:00+27с46464 1.9 10191744
20:00+23св366277 0.0 1019227